TimeCDT,TemperatureF,Dew PointF,Humidity,Sea Level PressureIn,VisibilityMPH,Wind Direction,Wind SpeedMPH,Gust SpeedMPH,PrecipitationIn,Events,Conditions,WindDirDegrees,DateUTC
12:15 AM,49.6,46.9,90,30.03,10.0,Calm,Calm,-,N/A,,Clear,0,2013-09-21 05:15:00
12:35 AM,49.1,46.6,91,30.03,10.0,Calm,Calm,-,N/A,,Clear,0,2013-09-21 05:35:00
12:55 AM,48.2,46.0,92,30.03,10.0,Calm,Calm,-,N/A,,Clear,0,2013-09-21 05:55:00
1:15 AM,48.0,46.6,95,30.03,10.0,Calm,Calm,-,N/A,,Clear,0,2013-09-21 06:15:00
1:35 AM,48.2,47.1,96,30.03,10.0,Calm,Calm,-,N/A,,Clear,0,2013-09-21 06:35:00
1:55 AM,48.9,47.1,93,30.03,10.0,Calm,Calm,-,N/A,,Clear,0,2013-09-21 06:55:00
2:15 AM,48.6,46.0,91,30.03,10.0,Calm,Calm,-,N/A,,Clear,0,2013-09-21 07:15:00
2:35 AM,47.3,44.8,91,30.03,10.0,Calm,Calm,-,N/A,,Clear,0,2013-09-21 07:35:00
2:55 AM,47.5,45.5,93,30.03,10.0,Calm,Calm,-,N/A,,Clear,0,2013-09-21 07:55:00
3:15 AM,47.8,45.9,93,30.02,10.0,Calm,Calm,-,N/A,,Clear,0,2013-09-21 08:15:00
3:35 AM,47.8,46.4,95,30.02,7.0,Calm,Calm,-,N/A,,Clear,0,2013-09-21 08:35:00
3:55 AM,47.3,45.7,94,30.02,10.0,Calm,Calm,-,N/A,,Clear,0,2013-09-21 08:55:00
4:15 AM,47.3,45.5,93,30.01,10.0,Calm,Calm,-,N/A,,Clear,0,2013-09-21 09:15:00
4:35 AM,46.6,45.3,95,30.02,10.0,Calm,Calm,-,N/A,,Clear,0,2013-09-21 09:35:00
4:55 AM,46.6,45.5,96,30.02,10.0,Calm,Calm,-,N/A,,Clear,0,2013-09-21 09:55:00
5:15 AM,46.6,44.6,93,30.01,10.0,Calm,Calm,-,N/A,,Clear,0,2013-09-21 10:15:00
5:35 AM,45.9,44.1,93,30.02,10.0,Calm,Calm,-,N/A,,Clear,0,2013-09-21 10:35:00
5:55 AM,46.0,44.4,94,30.02,10.0,Calm,Calm,-,N/A,,Clear,0,2013-09-21 10:55:00
6:15 AM,46.2,44.8,95,30.02,10.0,Calm,Calm,-,N/A,,Clear,0,2013-09-21 11:15:00
6:35 AM,46.6,45.3,95,30.02,10.0,Calm,Calm,-,N/A,,Clear,0,2013-09-21 11:35:00
6:55 AM,46.4,45.1,95,30.02,10.0,Calm,Calm,-,N/A,,Clear,0,2013-09-21 11:55:00
7:15 AM,46.4,45.3,96,30.03,10.0,East,4.6,-,N/A,,Clear,100,2013-09-21 12:15:00
7:35 AM,46.4,45.0,95,30.03,10.0,Calm,Calm,-,N/A,,Clear,0,2013-09-21 12:35:00
7:55 AM,47.1,45.5,94,30.03,10.0,Calm,Calm,-,N/A,,Clear,0,2013-09-21 12:55:00
8:15 AM,49.8,48.2,94,30.03,10.0,Calm,Calm,-,N/A,,Clear,0,2013-09-21 13:15:00
8:35 AM,51.6,48.9,90,30.03,10.0,Calm,Calm,-,N/A,,Clear,0,2013-09-21 13:35:00
8:55 AM,55.6,48.6,77,30.03,10.0,SE,6.9,-,N/A,,Clear,140,2013-09-21 13:55:00
9:15 AM,57.2,48.6,73,30.03,10.0,SE,6.9,-,N/A,,Clear,140,2013-09-21 14:15:00
9:35 AM,58.6,48.2,68,30.03,10.0,SE,6.9,-,N/A,,Clear,140,2013-09-21 14:35:00
9:55 AM,60.3,47.8,64,30.03,10.0,SE,10.4,-,N/A,,Clear,140,2013-09-21 14:55:00
10:15 AM,62.1,47.7,59,30.03,10.0,SE,10.4,-,N/A,,Clear,140,2013-09-21 15:15:00
10:35 AM,63.9,47.5,55,30.02,10.0,SSE,11.5,-,N/A,,Clear,150,2013-09-21 15:35:00
10:55 AM,65.8,49.1,55,30.02,10.0,SSE,10.4,-,N/A,,Clear,150,2013-09-21 15:55:00
11:15 AM,67.5,49.1,52,30.02,10.0,SE,10.4,-,N/A,,Clear,140,2013-09-21 16:15:00
11:35 AM,68.4,48.7,49,30.01,10.0,SE,10.4,-,N/A,,Clear,140,2013-09-21 16:35:00
11:55 AM,69.4,48.7,48,30.01,10.0,SSE,10.4,-,N/A,,Clear,160,2013-09-21 16:55:00
12:15 PM,70.9,49.5,47,30.00,10.0,SSE,6.9,-,N/A,,Clear,150,2013-09-21 17:15:00
12:35 PM,71.4,50.4,47,29.99,10.0,SE,10.4,-,N/A,,Clear,140,2013-09-21 17:35:00
12:55 PM,72.7,50.2,45,29.99,10.0,SE,6.9,-,N/A,,Clear,140,2013-09-21 17:55:00
1:15 PM,73.6,50.9,45,29.98,10.0,SSE,9.2,-,N/A,,Clear,150,2013-09-21 18:15:00
1:35 PM,74.3,50.4,43,29.98,10.0,South,5.8,-,N/A,,Clear,180,2013-09-21 18:35:00
1:55 PM,75.4,50.7,42,29.97,10.0,SSE,6.9,-,N/A,,Clear,160,2013-09-21 18:55:00
2:15 PM,76.1,51.8,43,29.96,10.0,SSE,9.2,-,N/A,,Clear,150,2013-09-21 19:15:00
2:35 PM,77.2,52.3,42,29.95,10.0,SSE,8.1,-,N/A,,Clear,160,2013-09-21 19:35:00
2:55 PM,77.9,52.2,41,29.94,10.0,South,9.2,-,N/A,,Clear,170,2013-09-21 19:55:00
3:15 PM,78.8,51.6,39,29.93,10.0,South,8.1,-,N/A,,Clear,170,2013-09-21 20:15:00
3:35 PM,79.0,52.2,39,29.91,10.0,SSE,5.8,-,N/A,,Clear,160,2013-09-21 20:35:00
3:55 PM,79.3,53.4,41,29.91,10.0,SSE,9.2,-,N/A,,Clear,160,2013-09-21 20:55:00
4:15 PM,79.7,53.4,40,29.89,10.0,SSE,11.5,-,N/A,,Clear,150,2013-09-21 21:15:00
4:35 PM,79.3,53.1,40,29.89,10.0,SSE,8.1,-,N/A,,Clear,160,2013-09-21 21:35:00
4:55 PM,79.5,54.1,41,29.88,10.0,SSE,10.4,-,N/A,,Clear,150,2013-09-21 21:55:00
5:15 PM,79.7,53.6,40,29.87,10.0,SSE,8.1,-,N/A,,Clear,160,2013-09-21 22:15:00
5:35 PM,80.1,51.6,37,29.87,10.0,SSE,5.8,-,N/A,,Clear,150,2013-09-21 22:35:00
5:55 PM,79.2,53.8,41,29.87,10.0,South,8.1,-,N/A,,Clear,180,2013-09-21 22:55:00
6:15 PM,78.3,53.2,42,29.86,10.0,SSE,9.2,-,N/A,,Clear,160,2013-09-21 23:15:00
6:35 PM,77.0,53.6,44,29.86,10.0,SSE,9.2,-,N/A,,Clear,150,2013-09-21 23:35:00
6:55 PM,75.6,53.8,47,29.87,10.0,SE,5.8,-,N/A,,Clear,140,2013-09-21 23:55:00
7:15 PM,73.6,54.5,51,29.86,10.0,SE,5.8,-,N/A,,Clear,140,2013-09-22 00:15:00
7:35 PM,72.0,54.3,54,29.86,10.0,SE,6.9,-,N/A,,Clear,140,2013-09-22 00:35:00
7:55 PM,70.2,54.5,57,29.86,10.0,SE,5.8,-,N/A,,Clear,140,2013-09-22 00:55:00
8:15 PM,68.9,54.5,60,29.87,10.0,SSE,6.9,-,N/A,,Clear,150,2013-09-22 01:15:00
8:35 PM,68.5,54.3,60,29.87,10.0,SSE,8.1,-,N/A,,Clear,150,2013-09-22 01:35:00
8:55 PM,67.5,54.5,63,29.87,10.0,SSE,8.1,-,N/A,,Clear,150,2013-09-22 01:55:00
9:15 PM,66.4,54.3,65,29.87,10.0,SSE,8.1,-,N/A,,Clear,160,2013-09-22 02:15:00
9:35 PM,65.7,54.1,66,29.88,10.0,SSE,9.2,-,N/A,,Clear,150,2013-09-22 02:35:00
9:55 PM,65.1,54.0,67,29.88,10.0,SSE,9.2,-,N/A,,Clear,160,2013-09-22 02:55:00
10:15 PM,64.6,54.0,68,29.88,10.0,SSE,8.1,-,N/A,,Clear,150,2013-09-22 03:15:00
10:35 PM,63.9,54.0,70,29.88,10.0,SSE,9.2,-,N/A,,Clear,150,2013-09-22 03:35:00
10:55 PM,63.7,54.0,71,29.89,10.0,SSE,9.2,-,N/A,,Clear,150,2013-09-22 03:55:00
11:15 PM,62.6,54.0,73,29.89,10.0,SSE,8.1,-,N/A,,Clear,150,2013-09-22 04:15:00
11:35 PM,61.9,54.0,75,29.89,10.0,SSE,6.9,-,N/A,,Clear,150,2013-09-22 04:35:00
11:55 PM,61.2,54.0,77,29.89,10.0,SSE,6.9,-,N/A,,Clear,150,2013-09-22 04:55:00